period_start,C,m1,H,J0,J1,J2,J3,J4,J5,JA,JB,JC,JD,JJ,JK,JN,#
2015-02-12 00:02:03,0.22,4.74,0.00,23.93,28.07,31.00,4.81,28.38,1008.33,2027.99,1962.95,2217.81,2374.38,350.54,344.29,23.45,0000 0000 0000 0000 000000
2015-02-12 00:07:04,0.23,4.75,0.00,24.01,28.05,30.95,4.73,28.43,1008.32,2027.99,1961.61,2216.76,2373.03,349.84,343.78,23.48,0000 0000 0000 0000 000000
2015-02-12 00:12:05,0.22,4.75,0.00,23.99,28.05,30.95,4.73,28.38,1008.31,2027.99,1960.27,2215.73,2371.77,350.21,343.84,23.51,0000 0000 0000 0000 000000
2015-02-12 00:17:07,0.23,4.76,0.00,23.97,28.05,30.94,4.74,28.53,1008.26,2027.99,1958.82,2214.68,2370.60,350.00,343.55,23.54,0000 0000 0000 0000 000000
2015-02-12 00:22:08,0.23,4.77,0.00,23.96,28.03,30.94,4.81,28.38,1008.07,2027.99,1957.45,2213.57,2369.33,350.41,343.77,23.56,0000 0000 0000 0000 000000
2015-02-12 00:27:09,0.24,4.77,0.00,23.97,28.02,30.95,4.76,28.71,1008.03,2027.99,1955.93,2212.43,2367.93,349.71,343.36,23.59,0000 0000 0000 0000 000000
2015-02-12 00:32:10,0.21,4.78,0.00,23.89,28.02,30.91,4.79,28.42,1008.21,2027.99,1954.59,2211.42,2366.82,350.25,344.03,23.62,0000 0000 0000 0000 000000
2015-02-12 00:37:12,0.22,4.79,0.00,23.91,28.02,30.83,4.75,28.44,1008.25,2027.99,1953.24,2210.37,2365.62,350.22,344.06,23.65,0000 0000 0000 0000 000000
2015-02-12 00:42:13,0.26,4.80,0.00,23.96,28.01,30.79,4.62,28.37,1008.06,2027.99,1951.58,2209.22,2364.17,349.17,343.00,23.68,0000 0000 0000 0000 000000
2015-02-12 00:47:14,0.22,4.80,0.00,23.92,28.00,30.84,4.71,28.50,1007.90,2027.99,1950.18,2208.19,2362.83,349.68,343.15,23.71,0000 0000 0000 0000 000000
2015-02-12 00:52:16,0.21,4.81,0.00,23.89,28.00,30.90,4.76,28.69,1007.84,2027.99,1948.83,2207.18,2361.72,349.58,343.26,23.74,0000 0000 0000 0000 000000
2015-02-12 00:57:17,0.23,4.82,0.00,23.88,28.00,30.87,4.79,28.76,1007.75,2027.99,1947.50,2206.23,2360.51,349.96,343.59,23.77,0000 0000 0000 0000 000000
2015-02-12 01:02:19,0.21,4.82,0.00,23.88,28.00,30.83,4.74,28.82,1007.50,2028.00,1946.09,2205.14,2359.37,349.94,343.44,23.80,0000 0000 0000 0000 000000
2015-02-12 01:07:20,0.24,4.83,0.00,23.93,28.00,30.78,4.78,28.69,1007.45,2028.00,1944.63,2204.03,2358.00,349.96,343.48,23.83,0000 0000 0000 0000 000000
2015-02-12 01:12:22,0.20,4.84,0.00,23.87,28.00,30.84,4.68,28.73,1007.47,2028.00,1943.37,2203.06,2356.83,350.06,343.82,23.86,0000 0000 0000 0000 000000
2015-02-12 01:17:23,0.19,4.84,0.00,23.81,28.00,30.88,4.65,28.82,1007.37,2028.00,1942.24,2202.16,2355.78,349.92,343.42,23.89,0000 0000 0000 0000 000000
2015-02-12 01:22:25,0.22,4.85,0.00,23.87,28.00,30.83,4.72,28.91,1007.36,2028.00,1940.89,2201.24,2354.65,349.89,343.31,23.92,0000 0000 0000 0000 000000
2015-02-12 01:27:26,0.21,4.85,0.00,23.92,28.00,30.78,4.74,28.65,1007.34,2028.00,1939.62,2200.24,2353.49,349.85,343.40,23.95,0000 0000 0000 0000 000000
2015-02-12 01:32:27,0.19,4.86,0.00,23.88,28.00,30.78,4.75,28.95,1007.23,2028.00,1938.44,2199.35,2352.40,350.48,344.10,23.97,0000 0000 0000 0000 000000
2015-02-12 01:37:28,0.23,4.87,0.00,23.80,28.00,30.88,4.75,28.98,1006.86,2028.00,1936.91,2198.23,2351.11,349.82,343.28,24.00,0000 0000 0000 0000 000000
2015-02-12 01:42:30,0.25,4.87,0.00,23.76,28.00,30.92,4.72,29.04,1006.75,2028.00,1935.50,2197.08,2349.73,349.58,343.18,24.03,0000 0000 0000 0000 000000
2015-02-12 01:47:31,0.21,4.88,0.00,23.81,28.02,30.93,4.78,29.09,1006.50,2028.00,1934.11,2196.00,2348.54,350.06,343.27,24.06,0000 0000 0000 0000 000000
2015-02-12 01:52:32,0.25,4.89,0.00,23.82,28.02,30.94,4.75,29.20,1006.45,2028.00,1932.83,2194.89,2347.26,349.78,343.15,24.09,0000 0000 0000 0000 000000
2015-02-12 01:57:33,0.26,4.90,0.00,23.85,28.04,30.90,4.76,29.07,1006.63,2028.00,1931.26,2193.75,2345.84,350.63,343.86,24.12,0000 0000 0000 0000 000000
2015-02-12 02:02:34,0.28,4.90,0.00,23.77,28.05,30.92,4.67,29.17,1006.76,2028.00,1929.70,2192.52,2344.48,349.83,343.26,24.15,0000 0000 0000 0000 000000
2015-02-12 02:07:36,0.23,4.91,0.00,23.76,28.05,30.99,4.70,29.17,1006.82,2028.00,1928.20,2191.42,2343.17,349.95,343.51,24.18,0000 0000 0000 0000 000000
2015-02-12 02:12:37,0.26,4.92,0.00,23.69,28.06,31.01,4.73,29.18,1006.64,2028.00,1926.64,2190.32,2341.79,350.01,343.24,24.21,0000 0000 0000 0000 000000
2015-02-12 02:17:38,0.21,4.92,0.00,23.69,28.07,31.02,4.72,29.25,1006.49,2028.00,1925.35,2189.24,2340.53,349.19,342.57,24.24,0000 0000 0000 0000 000000
2015-02-12 02:22:39,0.23,4.93,0.00,23.79,28.07,31.02,4.83,29.24,1006.36,2027.99,1923.81,2188.09,2339.26,350.24,343.57,24.27,0000 0000 0000 0000 000000
2015-02-12 02:27:41,0.26,4.94,0.00,23.77,28.08,31.03,4.69,29.10,1006.37,2027.98,1922.36,2186.85,2337.82,350.08,343.23,24.30,0000 0000 0000 0000 000000
2015-02-12 02:32:42,0.24,4.95,0.00,23.76,28.10,31.03,4.66,28.97,1006.37,2027.97,1920.94,2185.75,2336.63,349.74,343.11,24.33,0000 0000 0000 0000 000000
2015-02-12 02:37:43,0.19,4.95,0.00,23.80,28.11,31.04,4.74,29.15,1006.40,2027.93,1919.79,2184.77,2335.36,349.87,343.18,24.36,0000 0000 0000 0000 000000
2015-02-12 02:42:44,0.23,4.96,0.00,23.77,28.12,31.05,4.79,29.02,1006.68,2027.87,1918.39,2183.71,2334.17,350.17,343.63,24.38,0000 0000 0000 0000 000000
2015-02-12 02:47:46,0.17,4.96,0.00,23.66,28.13,31.11,4.72,29.09,1006.83,2027.83,1917.39,2182.79,2333.08,349.70,343.33,24.41,0000 0000 0000 0000 000000
2015-02-12 02:52:47,0.17,4.97,0.00,23.66,28.15,31.12,4.72,29.00,1006.76,2027.56,1915.99,2181.72,2331.84,349.76,343.34,24.44,0000 0000 0000 0000 000000
2015-02-12 02:57:48,0.26,4.98,0.00,23.69,28.15,31.14,4.80,29.09,1006.64,2027.44,1914.47,2180.51,2330.48,349.77,342.95,24.47,0000 0000 0000 0000 000000
2015-02-12 03:02:49,0.17,4.98,0.00,23.68,28.17,31.07,4.73,29.03,1006.75,2027.14,1913.03,2179.39,2329.17,349.98,343.60,24.50,0000 0000 0000 0000 000000
2015-02-12 03:07:51,0.22,4.99,0.00,23.68,28.17,31.12,4.76,29.16,1006.74,2027.05,1911.72,2178.36,2327.92,350.19,343.67,24.53,0000 0000 0000 0000 000000
2015-02-12 03:12:52,0.24,5.00,0.00,23.73,28.20,31.17,4.75,29.13,1006.50,2027.02,1910.14,2177.20,2326.68,349.90,343.28,24.56,0000 0000 0000 0000 000000
2015-02-12 03:17:54,0.23,5.00,0.00,23.72,28.20,31.18,4.74,29.23,1006.36,2027.02,1908.78,2176.10,2325.39,349.86,343.23,24.59,0000 0000 0000 0000 000000
2015-02-12 03:22:55,0.21,5.01,0.00,23.72,28.21,31.22,4.70,29.12,1006.36,2027.02,1907.55,2175.08,2324.09,349.66,343.02,24.62,0000 0000 0000 0000 000000
2015-02-12 03:27:57,0.24,5.02,0.00,23.60,28.22,31.17,4.75,29.18,1006.07,2027.01,1906.12,2174.07,2322.87,349.44,342.83,24.65,0000 0000 0000 0000 000000
2015-02-12 03:32:58,0.27,5.02,0.00,23.61,28.22,31.13,4.72,29.22,1005.87,2027.00,1904.60,2172.89,2321.52,349.38,342.82,24.68,0000 0000 0000 0000 000000
2015-02-12 03:37:59,0.26,5.03,0.00,23.61,28.22,31.11,4.76,29.37,1005.89,2027.00,1903.06,2171.72,2320.16,350.38,343.73,24.71,0000 0000 0000 0000 000000
2015-02-12 03:43:00,0.27,5.04,0.00,23.65,28.24,31.10,4.75,29.18,1006.28,2027.00,1901.60,2170.49,2318.82,350.05,343.60,24.74,0000 0000 0000 0000 000000
2015-02-12 03:48:01,0.22,5.05,0.00,23.61,28.25,31.09,4.68,29.07,1006.58,2027.00,1900.36,2169.46,2317.57,349.63,343.19,24.77,0000 0000 0000 0000 000000
2015-02-12 03:53:03,0.23,5.05,0.00,23.63,28.26,31.19,4.76,28.98,1006.90,2027.00,1898.90,2168.41,2316.36,350.21,343.61,24.79,0000 0000 0000 0000 000000
2015-02-12 03:58:04,0.25,5.06,0.00,23.56,28.27,31.16,4.72,28.64,1007.28,2026.99,1897.46,2167.21,2314.94,350.00,343.89,24.82,0000 0000 0000 0000 000000
2015-02-12 04:03:05,0.29,5.07,0.00,23.56,28.27,31.17,4.78,28.84,1007.29,2026.99,1895.78,2165.92,2313.57,350.43,344.27,24.85,0000 0000 0000 0000 000000
2015-02-12 04:08:06,0.28,5.08,0.00,23.55,28.29,31.14,4.80,28.93,1007.25,2026.99,1894.18,2164.65,2312.17,350.14,343.96,24.88,0000 0000 0000 0000 000000
2015-02-12 04:13:08,0.28,5.09,0.00,23.54,28.30,31.19,4.70,28.99,1007.32,2026.96,1892.51,2163.39,2310.63,349.64,343.57,24.91,0000 0000 0000 0000 000000
2015-02-12 04:18:09,0.30,5.09,0.00,23.57,28.31,31.25,4.75,28.88,1007.34,2026.94,1890.77,2162.00,2309.11,350.21,344.12,24.94,0000 0000 0000 0000 000000
2015-02-12 04:23:10,0.29,5.10,0.00,23.59,28.32,31.19,4.70,28.87,1007.36,2026.92,1889.07,2160.67,2307.57,349.90,343.73,24.97,0000 0000 0000 0000 000000
2015-02-12 04:28:12,0.25,5.11,0.00,23.66,28.33,31.24,4.82,28.91,1007.40,2026.79,1887.36,2159.38,2306.03,349.95,343.73,25.00,0000 0000 0000 0000 000000
2015-02-12 04:33:13,0.27,5.12,0.00,23.68,28.35,31.37,4.73,28.86,1007.35,2026.72,1885.72,2158.08,2304.62,349.89,343.62,25.03,0000 0000 0000 0000 000000
2015-02-12 04:38:14,0.23,5.13,0.00,23.70,28.36,31.39,4.69,29.17,1007.34,2026.44,1883.98,2156.75,2303.15,349.75,343.60,25.06,0000 0000 0000 0000 000000
2015-02-12 04:43:16,0.28,5.13,0.00,23.65,28.37,31.32,4.78,28.98,1007.35,2026.25,1882.33,2155.49,2301.77,350.25,344.06,25.09,0000 0000 0000 0000 000000
2015-02-12 04:48:17,0.22,5.14,0.00,23.66,28.37,31.30,4.72,28.97,1007.42,2026.14,1880.77,2154.24,2300.36,349.92,343.81,25.12,0000 0000 0000 0000 000000
2015-02-12 04:53:18,0.27,5.15,0.00,23.67,28.38,31.25,4.81,28.93,1007.49,2026.06,1879.18,2152.96,2298.91,350.03,343.93,25.15,0000 0000 0000 0000 000000
2015-02-12 04:58:19,0.28,5.16,0.00,23.72,28.40,31.27,4.77,28.68,1007.69,2026.02,1877.64,2151.71,2297.55,350.11,343.53,25.18,0000 0000 0000 0000 000000
2015-02-12 05:03:21,0.24,5.17,0.00,23.74,28.40,31.38,4.75,28.79,1007.82,2026.04,1876.05,2150.56,2296.16,349.57,343.39,25.20,0000 0000 0000 0000 000000
2015-02-12 05:08:22,0.28,5.17,0.00,23.74,28.40,31.40,4.80,28.80,1007.84,2026.01,1874.47,2149.27,2294.70,350.22,344.11,25.23,0000 0000 0000 0000 000000
2015-02-12 05:13:23,0.26,5.18,0.00,23.76,28.40,31.38,4.70,28.76,1007.84,2026.01,1872.86,2148.00,2293.42,349.93,343.93,25.26,0000 0000 0000 0000 000000
2015-02-12 05:18:25,0.27,5.19,0.00,23.76,28.42,31.25,4.74,28.58,1007.81,2026.00,1871.31,2146.83,2292.00,349.12,342.90,25.29,0000 0000 0000 0000 000000
2015-02-12 05:23:26,0.32,5.20,0.00,23.76,28.42,31.22,4.75,28.61,1007.42,2026.00,1869.61,2145.51,2290.59,349.85,343.51,25.32,0000 0000 0000 0000 000000
2015-02-12 05:28:27,0.22,5.21,0.00,23.83,28.42,31.33,4.77,28.62,1007.29,2026.01,1868.14,2144.42,2289.34,350.40,343.70,25.35,0000 0000 0000 0000 000000
2015-02-12 05:33:28,0.27,5.21,0.00,23.81,28.42,31.38,4.76,28.88,1006.97,2026.00,1866.60,2143.17,2287.97,349.77,343.32,25.38,0000 0000 0000 0000 000000
2015-02-12 05:38:29,0.27,5.22,0.00,23.79,28.42,31.40,4.70,28.79,1006.93,2026.00,1864.96,2141.96,2286.66,349.83,343.12,25.41,0000 0000 0000 0000 000000
2015-02-12 05:43:31,0.25,5.23,0.00,23.80,28.42,31.32,4.73,28.52,1007.30,2026.00,1863.65,2140.85,2285.37,350.25,343.79,25.44,0000 0000 0000 0000 000000
2015-02-12 05:48:32,0.21,5.24,0.00,23.85,28.42,31.31,4.81,28.65,1007.34,2026.00,1862.44,2139.85,2284.24,350.22,343.80,25.47,0000 0000 0000 0000 000000
2015-02-12 05:53:34,0.25,5.24,0.00,23.86,28.42,31.32,4.69,28.58,1007.34,2026.00,1860.96,2138.73,2282.99,350.01,343.36,25.50,0000 0000 0000 0000 000000
2015-02-12 05:58:35,0.24,5.25,0.00,23.80,28.42,31.38,4.74,28.90,1007.28,2026.00,1859.57,2137.75,2281.79,349.88,343.45,25.53,0000 0000 0000 0000 000000
2015-02-12 06:03:36,0.26,5.26,0.00,23.81,28.42,31.34,4.72,28.93,1007.13,2026.00,1858.06,2136.64,2280.57,349.85,343.41,25.56,0000 0000 0000 0000 000000
2015-02-12 06:08:37,0.26,5.26,0.00,23.77,28.41,31.23,4.77,28.67,1007.27,2026.00,1856.60,2135.47,2279.17,350.03,343.45,25.59,0000 0000 0000 0000 000000
2015-02-12 06:13:39,0.28,5.27,0.00,23.87,28.40,31.21,4.74,28.74,1007.34,2026.01,1855.00,2134.17,2277.73,350.25,343.57,25.62,0000 0000 0000 0000 000000
2015-02-12 06:18:40,0.28,5.28,0.00,23.91,28.40,31.30,4.71,28.93,1007.32,2026.01,1853.42,2132.89,2276.29,350.07,343.46,25.64,0000 0000 0000 0000 000000
2015-02-12 06:23:41,0.33,5.29,0.00,23.86,28.40,31.35,4.70,28.98,1007.30,2026.01,1851.70,2131.65,2274.81,349.23,342.79,25.67,0000 0000 0000 0000 000000
2015-02-12 06:28:42,0.25,5.30,0.00,23.89,28.40,31.31,4.79,29.08,1007.24,2026.01,1850.16,2130.45,2273.45,350.21,343.57,25.70,0000 0000 0000 0000 000000
2015-02-12 06:33:43,0.27,5.31,0.00,23.85,28.39,31.30,4.73,28.98,1007.30,2026.00,1848.57,2129.16,2272.01,350.30,343.81,25.73,0000 0000 0000 0000 000000
2015-02-12 06:38:44,0.28,5.32,0.00,23.85,28.38,31.30,4.80,29.09,1007.29,2026.00,1847.01,2127.96,2270.60,350.72,344.11,25.76,0000 0000 0000 0000 000000
2015-02-12 06:43:46,0.28,5.32,0.00,23.84,28.37,31.29,4.69,28.98,1007.10,2026.00,1845.47,2126.77,2269.24,349.84,343.39,25.79,0000 0000 0000 0000 000000
2015-02-12 06:48:47,0.28,5.33,0.00,23.82,28.38,31.26,4.78,29.12,1006.94,2026.00,1843.93,2125.63,2267.94,350.35,343.84,25.82,0000 0000 0000 0000 000000
2015-02-12 06:53:48,0.28,5.34,0.00,23.84,28.38,31.32,4.77,29.12,1006.99,2026.00,1842.29,2124.42,2266.54,349.66,342.96,25.85,0000 0000 0000 0000 000000
2015-02-12 06:58:49,0.27,5.35,0.00,23.85,28.39,31.32,4.76,29.12,1007.21,2026.00,1840.71,2123.21,2265.13,349.95,343.25,25.88,0000 0000 0000 0000 000000
2015-02-12 07:03:50,0.29,5.36,0.00,23.82,28.39,31.34,4.73,29.10,1007.02,2026.00,1839.11,2121.91,2263.69,350.36,343.48,25.91,0000 0000 0000 0000 000000
2015-02-12 07:08:52,0.29,5.36,0.00,23.79,28.39,31.33,4.77,29.01,1007.01,2026.00,1837.50,2120.71,2262.28,349.89,343.57,25.94,0000 0000 0000 0000 000000
2015-02-12 07:13:53,0.27,5.37,0.00,23.76,28.39,31.28,4.75,28.90,1006.98,2026.00,1835.93,2119.57,2260.85,350.49,344.08,25.97,0000 0000 0000 0000 000000
2015-02-12 07:18:55,0.28,5.38,0.00,23.79,28.40,31.22,4.75,28.98,1006.92,2026.00,1834.34,2118.33,2259.51,350.35,343.92,26.00,0000 0000 0000 0000 000000
2015-02-12 07:23:56,0.30,5.39,0.00,23.79,28.40,31.22,4.80,29.02,1006.86,2026.00,1832.65,2116.95,2258.01,350.24,343.67,26.02,0000 0000 0000 0000 000000
2015-02-12 07:28:57,0.33,5.40,0.00,23.82,28.40,31.27,4.72,29.20,1006.85,2026.00,1830.85,2115.65,2256.56,349.52,343.27,26.05,0000 0000 0000 0000 000000
2015-02-12 07:33:59,0.28,5.41,0.00,23.82,28.40,31.23,4.80,29.20,1006.88,2026.00,1829.20,2114.39,2255.03,349.92,343.41,26.08,0000 0000 0000 0000 000000
2015-02-12 07:39:00,0.30,5.42,0.00,23.82,28.40,31.22,4.78,29.27,1007.18,2025.99,1827.56,2113.02,2253.61,349.54,343.10,26.11,0000 0000 0000 0000 000000
2015-02-12 07:44:01,0.30,5.43,0.00,23.82,28.40,31.19,4.75,28.97,1007.35,2025.99,1825.82,2111.71,2252.13,349.95,343.48,26.14,0000 0000 0000 0000 000000
2015-02-12 07:49:03,0.28,5.43,0.00,23.82,28.41,31.32,4.72,28.98,1007.67,2025.99,1824.31,2110.67,2250.67,349.44,343.22,26.17,0000 0000 0000 0000 000000
2015-02-12 07:54:04,0.30,5.44,0.00,23.80,28.42,31.37,4.73,28.78,1007.98,2025.99,1822.61,2109.45,2249.26,349.89,343.71,26.20,0000 0000 0000 0000 000000
2015-02-12 07:59:05,0.29,5.45,0.00,23.70,28.42,31.28,4.66,28.66,1008.33,2025.99,1820.96,2108.18,2247.76,349.95,344.03,26.23,0000 0000 0000 0000 000000
2015-02-12 08:04:07,0.30,5.46,0.00,23.77,28.42,31.14,4.75,28.62,1008.63,2025.98,1819.34,2106.81,2246.34,349.84,343.83,26.26,0000 0000 0000 0000 000000
2015-02-12 08:09:08,0.32,5.47,0.00,23.83,28.42,31.22,4.82,28.72,1008.80,2025.97,1817.65,2105.53,2244.82,349.95,343.99,26.29,0000 0000 0000 0000 000000
2015-02-12 08:14:10,0.26,5.48,0.00,23.82,28.42,31.21,4.75,28.45,1008.81,2025.97,1816.06,2104.33,2243.45,350.55,344.39,26.32,0000 0000 0000 0000 000000
2015-02-12 08:19:11,0.30,5.49,0.00,23.85,28.42,31.35,4.73,28.66,1008.80,2025.96,1814.44,2102.98,2241.94,350.05,344.06,26.35,0000 0000 0000 0000 000000
2015-02-12 08:24:12,0.31,5.50,0.00,23.78,28.42,31.39,4.75,28.68,1008.73,2025.98,1812.78,2101.77,2240.58,349.71,343.79,26.38,0000 0000 0000 0000 000000
2015-02-12 08:29:13,0.30,5.50,0.00,23.76,28.42,31.30,4.72,28.76,1008.43,2025.98,1811.09,2100.55,2239.28,350.03,343.95,26.41,0000 0000 0000 0000 000000
2015-02-12 08:34:15,0.31,5.52,0.00,23.82,28.42,31.27,4.76,28.78,1008.31,2025.98,1809.26,2099.13,2237.75,349.79,343.69,26.43,0000 0000 0000 0000 000000
2015-02-12 08:39:16,0.32,5.52,0.00,23.85,28.40,31.32,4.78,28.88,1008.24,2025.98,1807.50,2097.77,2236.30,350.10,343.88,26.46,0000 0000 0000 0000 000000
2015-02-12 08:44:18,0.31,5.53,0.00,23.83,28.40,31.34,4.78,28.92,1007.96,2025.98,1805.80,2096.54,2234.79,350.27,343.90,26.49,0000 0000 0000 0000 000000
2015-02-12 08:49:19,0.30,5.54,0.00,23.86,28.40,31.32,4.73,29.16,1007.86,2025.98,1804.05,2095.18,2233.38,349.81,343.59,26.52,0000 0000 0000 0000 000000
2015-02-12 08:54:20,0.31,5.55,0.00,23.83,28.40,31.33,4.74,29.22,1007.84,2025.99,1802.36,2093.85,2231.89,349.82,343.60,26.55,0000 0000 0000 0000 000000
2015-02-12 08:59:21,0.33,5.56,0.00,23.79,28.40,31.37,4.79,29.02,1007.83,2025.99,1800.65,2092.57,2230.39,350.08,343.90,26.58,0000 0000 0000 0000 000000
2015-02-12 09:04:22,0.32,5.57,0.00,23.80,28.40,31.32,4.68,29.09,1007.80,2025.99,1798.79,2091.18,2228.77,350.07,343.68,26.61,0000 0000 0000 0000 000000
2015-02-12 09:09:24,0.35,5.58,0.00,23.81,28.39,31.30,4.74,29.08,1007.42,2025.99,1796.98,2089.71,2227.19,349.73,343.22,26.64,0000 0000 0000 0000 000000
2015-02-12 09:14:25,0.32,5.59,0.00,23.82,28.38,31.31,4.73,29.31,1007.34,2025.99,1795.14,2088.39,2225.61,349.89,343.45,26.67,0000 0000 0000 0000 000000
2015-02-12 09:19:26,0.32,5.60,0.00,23.82,28.37,31.33,4.71,29.37,1007.09,2025.99,1793.27,2086.94,2224.02,349.95,343.42,26.70,0000 0000 0000 0000 000000
2015-02-12 09:24:27,0.33,5.61,0.00,23.78,28.37,31.32,4.72,29.20,1006.86,2025.99,1791.55,2085.58,2222.47,349.79,343.04,26.73,0000 0000 0000 0000 000000
2015-02-12 09:29:29,0.35,5.62,0.00,23.81,28.37,31.29,4.71,29.25,1006.92,2025.99,1789.66,2084.08,2220.79,349.89,343.69,26.76,0000 0000 0000 0000 000000
2015-02-12 09:34:30,0.35,5.63,0.00,23.83,28.37,31.28,4.77,29.42,1006.91,2025.99,1787.76,2082.66,2219.14,350.25,343.63,26.79,0000 0000 0000 0000 000000
2015-02-12 09:39:31,0.35,5.64,0.00,23.78,28.37,31.31,4.76,29.20,1006.89,2025.99,1785.81,2081.14,2217.52,349.69,343.18,26.82,0000 0000 0000 0000 000000
2015-02-12 09:44:33,0.35,5.65,0.00,23.80,28.37,31.32,4.77,29.19,1006.87,2025.99,1783.99,2079.70,2215.85,350.00,343.43,26.85,0000 0000 0000 0000 000000
2015-02-12 09:49:34,0.39,5.66,0.00,23.79,28.37,31.26,4.77,29.18,1007.00,2025.99,1781.95,2078.12,2214.02,350.49,343.84,26.87,0000 0000 0000 0000 000000
2015-02-12 09:54:35,0.38,5.67,0.00,23.78,28.37,31.31,4.75,29.15,1007.01,2025.99,1779.90,2076.55,2212.25,350.33,343.82,26.90,0000 0000 0000 0000 000000
2015-02-12 09:59:36,0.34,5.68,0.00,23.81,28.38,31.33,4.75,29.23,1006.94,2025.99,1777.98,2075.06,2210.59,350.20,343.67,26.93,0000 0000 0000 0000 000000
2015-02-12 10:04:38,0.33,5.69,0.00,23.73,28.39,31.36,4.73,29.14,1006.91,2025.98,1776.26,2073.61,2208.96,350.00,343.09,26.96,0000 0000 0000 0000 000000
2015-02-12 10:09:40,0.32,5.70,0.00,23.69,28.40,31.30,4.74,29.04,1007.21,2025.98,1774.52,2072.28,2207.41,349.77,343.40,26.99,0000 0000 0000 0000 000000
2015-02-12 10:14:40,0.36,5.71,0.00,23.68,28.40,31.24,4.74,28.90,1007.34,2025.99,1772.75,2070.88,2205.79,350.18,343.92,27.02,0000 0000 0000 0000 000000
2015-02-12 10:19:42,0.32,5.72,0.00,23.72,28.40,31.31,4.76,29.11,1007.35,2025.98,1770.97,2069.51,2204.25,350.38,343.99,27.05,0000 0000 0000 0000 000000
2015-02-12 10:24:43,0.32,5.73,0.00,23.73,28.40,31.38,4.71,28.99,1007.32,2025.96,1769.14,2068.06,2202.65,349.69,343.54,27.08,0000 0000 0000 0000 000000
2015-02-12 10:29:44,0.34,5.74,0.00,23.70,28.40,31.35,4.71,29.03,1007.27,2025.95,1767.34,2066.69,2201.15,350.35,343.82,27.11,0000 0000 0000 0000 000000
2015-02-12 10:34:46,0.34,5.75,0.00,23.68,28.42,31.26,4.79,29.07,1007.34,2025.96,1765.61,2065.39,2199.66,350.34,344.06,27.14,0000 0000 0000 0000 000000
2015-02-12 10:39:47,0.31,5.76,0.00,23.66,28.42,31.22,4.74,28.88,1007.34,2025.92,1763.83,2064.00,2198.11,349.91,343.80,27.17,0000 0000 0000 0000 000000
2015-02-12 10:44:48,0.31,5.77,0.00,23.66,28.42,31.22,4.75,28.98,1007.36,2025.75,1762.04,2062.63,2196.57,349.75,343.66,27.20,0000 0000 0000 0000 000000
2015-02-12 10:49:49,0.30,5.78,0.00,23.65,28.42,31.18,4.81,28.98,1007.36,2025.79,1760.43,2061.30,2195.00,349.89,343.42,27.23,0000 0000 0000 0000 000000
2015-02-12 10:54:51,0.31,5.79,0.00,23.65,28.42,31.26,4.78,28.88,1007.34,2025.52,1758.51,2059.83,2193.42,350.02,344.01,27.25,0000 0000 0000 0000 000000
2015-02-12 10:59:52,0.34,5.80,0.00,23.71,28.43,31.30,4.74,29.15,1007.13,2025.44,1756.53,2058.40,2191.78,350.49,343.98,27.28,0000 0000 0000 0000 000000
2015-02-12 11:04:53,0.39,5.81,0.00,23.76,28.45,31.42,4.73,29.31,1006.86,2025.46,1754.68,2056.91,2190.21,349.78,343.25,27.31,0000 0000 0000 0000 000000
2015-02-12 11:09:54,0.38,5.82,0.00,23.76,28.45,31.42,4.68,29.10,1006.85,2025.64,1752.87,2055.52,2188.63,349.78,343.31,27.34,0000 0000 0000 0000 000000
2015-02-12 11:14:55,0.30,5.83,0.00,23.76,28.45,31.43,4.70,29.05,1006.80,2025.47,1750.96,2054.01,2186.96,349.52,342.89,27.37,0000 0000 0000 0000 000000
2015-02-12 11:19:57,0.34,5.84,0.00,23.65,28.45,31.30,4.72,29.20,1006.72,2025.51,1749.14,2052.64,2185.47,349.75,343.53,27.40,0000 0000 0000 0000 000000
2015-02-12 11:24:58,0.34,5.85,0.00,23.73,28.45,31.28,4.72,29.18,1006.62,2025.37,1747.35,2051.17,2183.82,349.58,343.09,27.43,0000 0000 0000 0000 000000
2015-02-12 11:29:59,0.35,5.86,0.00,23.70,28.45,31.23,4.65,29.23,1006.37,2025.31,1745.58,2049.73,2182.22,349.60,342.92,27.46,0000 0000 0000 0000 000000
2015-02-12 11:35:01,0.32,5.87,0.00,23.72,28.45,31.24,4.79,29.26,1006.36,2025.27,1743.75,2048.35,2180.62,350.53,343.75,27.49,0000 0000 0000 0000 000000
2015-02-12 11:40:02,0.32,5.88,0.00,23.75,28.45,31.37,4.75,29.39,1006.36,2025.23,1741.85,2046.97,2178.96,350.16,343.52,27.52,0000 0000 0000 0000 000000
2015-02-12 11:45:03,0.32,5.89,0.00,23.76,28.45,31.43,4.83,29.22,1006.37,2025.21,1740.11,2045.77,2177.46,350.25,343.68,27.55,0000 0000 0000 0000 000000
2015-02-12 11:50:05,0.35,5.90,0.00,23.71,28.46,31.36,4.77,29.13,1006.75,2025.22,1738.44,2044.44,2175.91,350.27,343.85,27.58,0000 0000 0000 0000 000000
2015-02-12 11:55:06,0.29,5.91,0.00,23.71,28.47,31.29,4.75,29.22,1006.91,2025.18,1736.76,2043.09,2174.50,349.84,343.43,27.61,0000 0000 0000 0000 000000
2015-02-12 12:00:07,0.36,5.92,0.00,23.77,28.47,31.35,4.72,28.94,1007.26,2025.12,1734.98,2041.64,2172.95,349.78,343.35,27.64,0000 0000 0000 0000 000000
2015-02-12 12:05:09,0.32,5.93,0.00,23.72,28.47,31.24,4.75,28.82,1007.34,2025.08,1733.17,2040.29,2171.39,349.80,343.43,27.66,0000 0000 0000 0000 000000
2015-02-12 12:10:10,0.39,5.94,0.00,23.67,28.47,31.27,4.71,28.95,1007.61,2025.03,1731.19,2038.74,2169.68,349.58,343.45,27.69,0000 0000 0000 0000 000000
2015-02-12 12:15:11,0.34,5.95,0.00,23.65,28.47,31.27,4.73,28.72,1007.82,2025.03,1729.33,2037.26,2168.06,349.57,343.55,27.72,0000 0000 0000 0000 000000
2015-02-12 12:20:12,0.36,5.96,0.00,23.69,28.47,31.26,4.68,28.78,1007.84,2025.02,1727.56,2035.75,2166.36,349.86,343.78,27.75,0000 0000 0000 0000 000000
2015-02-12 12:25:14,0.35,5.97,0.00,23.77,28.47,31.39,4.69,28.82,1008.05,2025.02,1725.86,2034.42,2164.73,349.84,343.70,27.78,0000 0000 0000 0000 000000
2015-02-12 12:30:15,0.33,5.98,0.00,23.74,28.48,31.45,4.77,28.83,1008.31,2025.02,1724.11,2032.94,2163.18,349.59,343.65,27.81,0000 0000 0000 0000 000000
2015-02-12 12:35:16,0.36,5.99,0.00,23.72,28.48,31.48,4.78,28.71,1008.38,2025.02,1722.37,2031.59,2161.61,350.17,344.23,27.84,0000 0000 0000 0000 000000
2015-02-12 12:40:17,0.36,6.00,0.00,23.64,28.48,31.43,4.75,28.82,1008.70,2025.01,1720.53,2030.05,2160.03,350.23,344.22,27.87,0000 0000 0000 0000 000000
2015-02-12 12:45:18,0.35,6.01,0.00,23.73,28.47,31.36,4.82,28.63,1008.81,2025.00,1718.80,2028.66,2158.44,350.13,344.16,27.90,0000 0000 0000 0000 000000
2015-02-12 12:50:20,0.32,6.02,0.00,23.76,28.47,31.44,4.76,28.73,1008.82,2025.00,1717.06,2027.35,2156.90,349.92,344.00,27.93,0000 0000 0000 0000 000000
2015-02-12 12:55:21,0.34,6.03,0.00,23.79,28.47,31.45,4.79,28.98,1008.79,2025.01,1715.34,2025.86,2155.42,350.33,344.36,27.96,0000 0000 0000 0000 000000
2015-02-12 13:00:22,0.37,6.04,0.00,23.74,28.47,31.31,4.69,28.37,1008.80,2025.00,1713.51,2024.53,2153.77,349.62,343.85,27.99,0000 0000 0000 0000 000000